EJU21CD DTTX-LFLL

Flight info

Callsign EJU21CD
Flight time N/A
Altitude 38000
Route KADRA1B KADRA DCT ELJEM UA411 TUC UM733 TANIT UM739 NIVAB M739 TABOT DCT NESUL DCT NETUP/N0442F370 DCT JULEE/N0445F380 J685 MRM UN854 MTL
Aircraft A319/M-SDE3FGHIRWY/LB1

Departure

Time 2026-04-16 11:38
Airport Sfax Thyna International Airport (DTTX)

Arrival

Time N/A
Airport Lyon Saint-Exupéry Airport (LFLL)
Time Latitude Longitude Altitude Speed Heading
2026-04-16 11:04 34.72281 10.69082 52 ft 0 kts 58°
2026-04-16 11:29 34.72271 10.69060 60 ft 4 kts 70°
2026-04-16 11:29 34.72266 10.69029 65 ft 4 kts 100°
2026-04-16 11:29 34.72276 10.69003 67 ft 3 kts 146°
2026-04-16 11:29 34.72278 10.69001 64 ft 0 kts 148°
2026-04-16 11:32 34.72276 10.69003 67 ft 2 kts 148°
2026-04-16 11:32 34.72261 10.69015 66 ft 4 kts 148°
2026-04-16 11:32 34.72222 10.69043 71 ft 8 kts 151°
2026-04-16 11:33 34.72159 10.69033 67 ft 11 kts 218°
2026-04-16 11:33 34.72109 10.68943 66 ft 14 kts 238°
2026-04-16 11:33 34.72030 10.68880 72 ft 15 kts 174°
2026-04-16 11:33 34.71936 10.68944 69 ft 17 kts 148°
2026-04-16 11:34 34.71828 10.69026 67 ft 20 kts 149°
2026-04-16 11:34 34.71746 10.69088 72 ft 22 kts 148°
2026-04-16 11:34 34.71604 10.69195 69 ft 26 kts 148°
2026-04-16 11:34 34.71441 10.69319 72 ft 29 kts 148°
2026-04-16 11:35 34.71270 10.69448 70 ft 28 kts 148°
2026-04-16 11:35 34.71118 10.69563 71 ft 24 kts 148°
2026-04-16 11:35 34.71004 10.69649 75 ft 18 kts 148°
2026-04-16 11:35 34.70900 10.69728 75 ft 17 kts 148°
2026-04-16 11:36 34.70800 10.69803 76 ft 17 kts 148°
2026-04-16 11:36 34.70704 10.69876 71 ft 15 kts 148°
2026-04-16 11:36 34.70655 10.69945 74 ft 9 kts 117°
2026-04-16 11:36 34.70617 10.69960 70 ft 6 kts 237°
2026-04-16 11:37 34.70637 10.69927 67 ft 5 kts 327°
2026-04-16 11:37 34.70716 10.69867 71 ft 37 kts 328°
2026-04-16 11:37 34.71147 10.69541 74 ft 107 kts 328°
2026-04-16 11:37 34.71914 10.68961 214 ft 144 kts 329°
2026-04-16 11:38 34.72766 10.68326 875 ft 144 kts 333°
2026-04-16 11:38 34.73683 10.67874 1438 ft 147 kts 358°
2026-04-16 11:38 34.74725 10.68156 1791 ft 167 kts 28°
2026-04-16 11:38 34.75811 10.68899 2094 ft 193 kts 17°
2026-04-16 11:39 34.77231 10.69099 2520 ft 219 kts
2026-04-16 11:39 34.78816 10.69208 3170 ft 233 kts
2026-04-16 11:39 34.80457 10.69317 4108 ft 237 kts
2026-04-16 11:39 34.82112 10.69430 5069 ft 241 kts
2026-04-16 11:40 34.83802 10.69549 5963 ft 246 kts
2026-04-16 11:40 34.85527 10.69673 6853 ft 250 kts
2026-04-16 11:40 34.87277 10.69801 7733 ft 254 kts
2026-04-16 11:40 34.89055 10.69928 8618 ft 258 kts
2026-04-16 11:41 34.90861 10.70058 9487 ft 262 kts
2026-04-16 11:41 34.92703 10.70190 10273 ft 269 kts
2026-04-16 11:41 34.94654 10.70334 10588 ft 293 kts
2026-04-16 11:41 34.96748 10.70489 11040 ft 308 kts
2026-04-16 11:42 34.98911 10.70630 11743 ft 314 kts
2026-04-16 11:42 35.01122 10.70750 12521 ft 319 kts
2026-04-16 11:42 35.03345 10.70861 13317 ft 321 kts
2026-04-16 11:42 35.05599 10.70972 13999 ft 327 kts
2026-04-16 11:43 35.07861 10.71085 14629 ft 331 kts
2026-04-16 11:43 35.10174 10.71204 15307 ft 334 kts
2026-04-16 11:43 35.12509 10.71328 15965 ft 338 kts
2026-04-16 11:43 35.14880 10.71456 16573 ft 343 kts
2026-04-16 11:44 35.17266 10.71584 17255 ft 345 kts
2026-04-16 11:44 35.19674 10.71711 17918 ft 348 kts
2026-04-16 11:44 35.22112 10.71840 18500 ft 353 kts
2026-04-16 11:44 35.24583 10.71970 19081 ft 356 kts
2026-04-16 11:45 35.27058 10.72103 19711 ft 357 kts
2026-04-16 11:45 35.29546 10.72236 20258 ft 361 kts
2026-04-16 11:45 35.32065 10.72370 20838 ft 363 kts
2026-04-16 11:45 35.34597 10.72506 21452 ft 365 kts
2026-04-16 11:46 35.37153 10.72644 22031 ft 369 kts
2026-04-16 11:46 35.39726 10.72785 22612 ft 371 kts
2026-04-16 11:46 35.42314 10.72927 23206 ft 373 kts
2026-04-16 11:46 35.44920 10.73075 23733 ft 376 kts
2026-04-16 11:47 35.47544 10.73227 24181 ft 379 kts
2026-04-16 11:47 35.50191 10.73378 24642 ft 381 kts
2026-04-16 11:47 35.52812 10.73527 25078 ft 383 kts
2026-04-16 11:47 35.55516 10.73683 25511 ft 386 kts
2026-04-16 11:48 35.58211 10.73840 25946 ft 388 kts
2026-04-16 11:48 35.60911 10.73998 26366 ft 390 kts
2026-04-16 11:48 35.63603 10.74153 26775 ft 393 kts
2026-04-16 11:48 35.66372 10.74310 27198 ft 395 kts
2026-04-16 11:49 35.69090 10.74462 27604 ft 397 kts
2026-04-16 11:49 35.71861 10.74615 28021 ft 400 kts
2026-04-16 11:49 35.74646 10.74545 28415 ft 402 kts 354°
2026-04-16 11:49 35.77401 10.73881 28802 ft 406 kts 345°
2026-04-16 11:50 35.80074 10.72702 29141 ft 410 kts 341°
2026-04-16 11:50 35.82755 10.71443 29497 ft 413 kts 341°
2026-04-16 11:50 35.85448 10.70185 29866 ft 415 kts 341°
2026-04-16 11:50 35.88156 10.68923 30196 ft 417 kts 341°
2026-04-16 11:51 35.90878 10.67654 30494 ft 419 kts 341°
2026-04-16 11:51 35.93611 10.66379 30794 ft 421 kts 341°
2026-04-16 11:51 35.96360 10.65096 31097 ft 422 kts 341°
2026-04-16 11:51 35.99111 10.63811 31385 ft 423 kts 340°
2026-04-16 11:52 36.01871 10.62519 31681 ft 425 kts 340°
2026-04-16 11:52 36.04629 10.61224 32083 ft 423 kts 340°
2026-04-16 11:52 36.07380 10.59931 32471 ft 423 kts 340°
2026-04-16 11:52 36.10124 10.58640 32862 ft 421 kts 340°
2026-04-16 11:53 36.12832 10.57369 33242 ft 420 kts 340°
2026-04-16 11:53 36.15557 10.56091 33689 ft 417 kts 340°
2026-04-16 11:53 36.18257 10.54823 34159 ft 414 kts 340°
2026-04-16 11:53 36.20940 10.53558 34529 ft 412 kts 340°
2026-04-16 11:54 36.23615 10.52297 34845 ft 411 kts 340°
2026-04-16 11:54 36.26286 10.51038 35133 ft 411 kts 340°
2026-04-16 11:54 36.28955 10.49780 35428 ft 410 kts 340°
2026-04-16 11:54 36.31620 10.48524 35658 ft 411 kts 340°
2026-04-16 11:55 36.34303 10.47261 35896 ft 412 kts 340°
2026-04-16 11:55 36.36976 10.46003 36139 ft 412 kts 340°
2026-04-16 11:55 36.39659 10.44733 36402 ft 412 kts 340°
2026-04-16 11:55 36.42333 10.43464 36662 ft 411 kts 340°
2026-04-16 11:56 36.45007 10.42198 36907 ft 411 kts 340°
2026-04-16 11:56 36.47682 10.40934 37144 ft 411 kts 340°
2026-04-16 11:56 36.50357 10.39670 37348 ft 411 kts 339°
2026-04-16 11:56 36.53031 10.38406 37502 ft 411 kts 339°
2026-04-16 11:57 36.55705 10.37140 37658 ft 411 kts 340°
2026-04-16 11:57 36.58381 10.35870 37814 ft 412 kts 340°
2026-04-16 11:57 36.61065 10.34595 37989 ft 412 kts 340°
2026-04-16 11:57 36.63743 10.33321 38095 ft 412 kts 340°
2026-04-16 11:58 36.66415 10.32051 38109 ft 411 kts 340°
2026-04-16 11:58 36.71724 10.29525 38112 ft 411 kts 340°
2026-04-16 11:59 36.77065 10.26978 38111 ft 411 kts 339°
2026-04-16 11:59 36.82409 10.24426 38110 ft 412 kts 340°
2026-04-16 12:00 36.87872 10.22269 38111 ft 412 kts 346°
2026-04-16 12:00 36.93444 10.20544 38113 ft 412 kts 346°
2026-04-16 12:01 36.99005 10.18804 38118 ft 412 kts 346°
2026-04-16 12:01 37.04560 10.17066 38139 ft 411 kts 346°
2026-04-16 12:02 37.12858 10.14485 38138 ft 411 kts 346°
2026-04-16 12:02 37.18406 10.12753 38153 ft 411 kts 346°
2026-04-16 12:03 37.23953 10.11014 38152 ft 411 kts 346°
2026-04-16 12:03 37.29499 10.09275 38153 ft 411 kts 346°
2026-04-16 12:04 37.35040 10.07536 38148 ft 410 kts 346°
2026-04-16 12:04 37.40557 10.05792 38147 ft 410 kts 346°
2026-04-16 12:05 37.46086 10.04045 38140 ft 410 kts 346°
2026-04-16 12:05 37.51471 10.02348 38143 ft 410 kts 346°
2026-04-16 12:06 37.56744 10.00689 38147 ft 410 kts 347°
2026-04-16 12:06 37.62273 9.98933 38135 ft 410 kts 346°
2026-04-16 12:07 37.67817 9.97167 38146 ft 410 kts 346°
2026-04-16 12:07 37.73294 9.95185 38133 ft 411 kts 338°
2026-04-16 12:08 37.78024 9.91192 38131 ft 417 kts 318°
2026-04-16 12:08 37.81996 9.85833 38124 ft 418 kts 316°
2026-04-16 12:09 37.85972 9.80446 38118 ft 419 kts 316°
2026-04-16 12:09 37.89942 9.75050 38141 ft 419 kts 316°
2026-04-16 12:10 37.93909 9.69644 38133 ft 418 kts 316°
2026-04-16 12:10 37.97861 9.64234 38152 ft 418 kts 316°
2026-04-16 12:11 38.01814 9.58825 38144 ft 418 kts 316°
2026-04-16 12:11 38.05769 9.53407 38145 ft 418 kts 316°
2026-04-16 12:12 38.09716 9.47990 38150 ft 418 kts 316°
2026-04-16 12:12 38.13659 9.42579 38138 ft 418 kts 316°
2026-04-16 12:13 38.17602 9.37163 38142 ft 417 kts 316°
2026-04-16 12:13 38.21535 9.31739 38146 ft 417 kts 315°
2026-04-16 12:14 38.25458 9.26304 38147 ft 417 kts 315°
2026-04-16 12:14 38.29357 9.20906 38156 ft 417 kts 316°
2026-04-16 12:15 38.33290 9.15478 38147 ft 417 kts 316°
2026-04-16 12:15 38.37215 9.10030 38149 ft 417 kts 315°
2026-04-16 12:16 38.41133 9.04582 38133 ft 417 kts 315°
2026-04-16 12:16 38.45048 8.99130 38140 ft 417 kts 315°
2026-04-16 12:17 38.48963 8.93673 38144 ft 417 kts 315°
2026-04-16 12:17 38.52871 8.88202 38146 ft 417 kts 315°
2026-04-16 12:18 38.56771 8.82721 38145 ft 417 kts 315°
2026-04-16 12:18 38.60661 8.77274 38143 ft 417 kts 315°
2026-04-16 12:19 38.64572 8.71786 38145 ft 417 kts 315°
2026-04-16 12:19 38.68491 8.66285 38129 ft 418 kts 315°
2026-04-16 12:20 38.71744 8.61704 38133 ft 418 kts 314°
2026-04-16 12:20 38.75649 8.56185 38138 ft 419 kts 314°
2026-04-16 12:21 38.79559 8.50640 38139 ft 419 kts 314°
2026-04-16 12:21 38.83469 8.45100 38147 ft 419 kts 314°
2026-04-16 12:22 38.87378 8.39551 38144 ft 419 kts 314°
2026-04-16 12:22 38.91283 8.33989 38129 ft 419 kts 314°
2026-04-16 12:23 38.95186 8.28415 38140 ft 420 kts 314°
2026-04-16 12:23 38.99102 8.22831 38145 ft 420 kts 314°
2026-04-16 12:24 39.03010 8.17237 38150 ft 420 kts 314°
2026-04-16 12:24 39.06916 8.11634 38157 ft 421 kts 314°
2026-04-16 12:25 39.10801 8.06054 38159 ft 421 kts 314°
2026-04-16 12:25 39.14980 8.00806 38160 ft 418 kts 326°
2026-04-16 12:26 39.20150 7.97485 38158 ft 416 kts 340°
2026-04-16 12:26 39.25570 7.94844 38138 ft 417 kts 339°
2026-04-16 12:27 39.31000 7.92182 38137 ft 418 kts 339°
2026-04-16 12:27 39.36448 7.89508 38141 ft 419 kts 339°
2026-04-16 12:28 39.41904 7.86820 38147 ft 419 kts 339°
2026-04-16 12:28 39.47327 7.84160 38156 ft 420 kts 339°
2026-04-16 12:29 39.52790 7.81473 38156 ft 420 kts 339°
2026-04-16 12:29 39.58251 7.78766 38156 ft 420 kts 339°
2026-04-16 12:30 39.63723 7.76055 38154 ft 421 kts 339°
2026-04-16 12:30 39.69193 7.73345 38163 ft 421 kts 339°
2026-04-16 12:31 39.74667 7.70634 38167 ft 421 kts 339°
2026-04-16 12:31 39.80135 7.67916 38164 ft 421 kts 339°
2026-04-16 12:32 39.85582 7.65200 38162 ft 422 kts 339°
2026-04-16 12:32 39.91094 7.62446 38160 ft 422 kts 339°
2026-04-16 12:33 39.96580 7.59705 38161 ft 422 kts 339°
2026-04-16 12:33 40.02031 7.56970 38148 ft 423 kts 339°
2026-04-16 12:34 40.07556 7.54203 38149 ft 423 kts 339°
2026-04-16 12:34 40.13057 7.51445 38153 ft 424 kts 339°
2026-04-16 12:35 40.18523 7.48688 38157 ft 424 kts 339°
2026-04-16 12:35 40.24035 7.45908 38159 ft 424 kts 339°
2026-04-16 12:36 40.29551 7.43127 38157 ft 424 kts 339°
2026-04-16 12:36 40.35062 7.40337 38158 ft 425 kts 339°
2026-04-16 12:37 40.40549 7.37552 38160 ft 425 kts 339°
2026-04-16 12:37 40.46062 7.34751 38162 ft 425 kts 339°
2026-04-16 12:38 40.51574 7.31943 38159 ft 425 kts 339°
2026-04-16 12:38 40.57085 7.29134 38160 ft 425 kts 339°
2026-04-16 12:39 40.62603 7.26319 38163 ft 425 kts 339°
2026-04-16 12:39 40.68115 7.23503 38164 ft 425 kts 339°
2026-04-16 12:40 40.73628 7.20687 38157 ft 425 kts 339°
2026-04-16 12:40 40.79145 7.17852 38157 ft 425 kts 339°
2026-04-16 12:41 40.84651 7.15023 38160 ft 425 kts 339°
2026-04-16 12:41 40.90163 7.12189 38160 ft 425 kts 339°
2026-04-16 12:42 40.95681 7.09344 38155 ft 425 kts 339°
2026-04-16 12:42 41.01152 7.06501 38155 ft 425 kts 339°
2026-04-16 12:43 41.06658 7.03647 38153 ft 425 kts 339°
2026-04-16 12:43 41.12112 7.00571 38155 ft 426 kts 336°
2026-04-16 12:44 41.17465 6.97199 38157 ft 426 kts 335°
2026-04-16 12:44 41.22811 6.93802 38157 ft 426 kts 335°
2026-04-16 12:45 41.28185 6.90458 38154 ft 426 kts 336°
2026-04-16 12:45 41.33569 6.87158 38154 ft 426 kts 336°
2026-04-16 12:46 41.38956 6.83835 38146 ft 426 kts 335°
2026-04-16 12:46 41.44324 6.80495 38153 ft 426 kts 335°
2026-04-16 12:47 41.49699 6.77150 38156 ft 426 kts 335°
2026-04-16 12:47 41.55077 6.73810 38157 ft 426 kts 335°
2026-04-16 12:48 41.60449 6.70459 38155 ft 426 kts 335°
2026-04-16 12:48 41.65793 6.67117 38155 ft 426 kts 335°
2026-04-16 12:49 41.71166 6.63752 38154 ft 426 kts 335°
2026-04-16 12:49 41.76535 6.60373 38156 ft 426 kts 335°
2026-04-16 12:50 41.81913 6.56995 38161 ft 426 kts 335°
2026-04-16 12:50 41.87285 6.53620 38160 ft 426 kts 335°
2026-04-16 12:51 41.92655 6.50236 38157 ft 426 kts 335°
2026-04-16 12:51 41.98023 6.46844 38155 ft 426 kts 335°
2026-04-16 12:52 42.03356 6.43466 38156 ft 425 kts 335°
2026-04-16 12:52 42.08706 6.40074 38166 ft 425 kts 335°
2026-04-16 12:53 42.14046 6.36686 38164 ft 424 kts 336°
2026-04-16 12:53 42.19377 6.33296 38163 ft 423 kts 335°
2026-04-16 12:54 42.24699 6.29895 38164 ft 423 kts 336°
2026-04-16 12:54 42.30012 6.26493 38164 ft 422 kts 335°
2026-04-16 12:55 42.35314 6.23093 38166 ft 421 kts 336°
2026-04-16 12:55 42.40610 6.19702 38156 ft 421 kts 336°
2026-04-16 12:56 42.45906 6.16300 38159 ft 421 kts 335°
2026-04-16 12:56 42.51185 6.12900 38158 ft 420 kts 336°
2026-04-16 12:57 42.56465 6.09496 38156 ft 420 kts 335°
2026-04-16 12:57 42.61739 6.06085 38164 ft 419 kts 336°
2026-04-16 12:58 42.66964 6.02695 38172 ft 418 kts 336°
2026-04-16 12:58 42.72217 5.99289 38165 ft 418 kts 336°
2026-04-16 12:59 42.77462 5.95880 38164 ft 418 kts 336°
2026-04-16 13:00 42.85329 5.90759 38176 ft 417 kts 336°
2026-04-16 13:00 42.90559 5.87347 38166 ft 417 kts 336°
2026-04-16 13:01 42.95669 5.83605 38167 ft 418 kts 324°
2026-04-16 13:01 42.97817 5.80916 38166 ft 421 kts 313°
2026-04-16 13:01 42.99535 5.77675 38164 ft 425 kts 302°
2026-04-16 13:01 43.00760 5.73990 38164 ft 429 kts 291°
2026-04-16 13:02 43.01513 5.70033 38151 ft 430 kts 289°
2026-04-16 13:02 43.02561 5.66230 38150 ft 425 kts 301°
2026-04-16 13:02 43.04119 5.62836 38151 ft 420 kts 311°
2026-04-16 13:03 43.08343 5.57455 38145 ft 413 kts 329°
2026-04-16 13:03 43.13233 5.53342 38156 ft 413 kts 330°
2026-04-16 13:04 43.18136 5.49220 38161 ft 413 kts 330°
2026-04-16 13:04 43.22992 5.45122 38154 ft 413 kts 330°
2026-04-16 13:05 43.27884 5.40987 38154 ft 413 kts 330°
2026-04-16 13:05 43.32777 5.36840 38152 ft 413 kts 330°
2026-04-16 13:06 43.37711 5.32821 38149 ft 411 kts 336°
2026-04-16 13:06 43.42169 5.30626 38156 ft 409 kts 342°
2026-04-16 13:07 43.47581 5.28174 38161 ft 409 kts 342°
2026-04-16 13:07 43.52980 5.25707 38161 ft 409 kts 342°
2026-04-16 13:08 43.58381 5.23231 38152 ft 408 kts 342°
2026-04-16 13:08 43.60163 5.22414 38158 ft 408 kts 342°
2026-04-16 13:09 43.68224 5.18724 38154 ft 408 kts 342°
2026-04-16 13:10 43.83010 5.11906 36904 ft 409 kts 342°
2026-04-16 13:10 43.85710 5.10660 36644 ft 409 kts 342°
2026-04-16 13:10 43.88412 5.09413 36385 ft 410 kts 342°
2026-04-16 13:11 43.91124 5.08161 36035 ft 410 kts 342°
2026-04-16 13:11 43.93842 5.06902 35267 ft 413 kts 341°
2026-04-16 13:11 43.96572 5.05635 34643 ft 412 kts 341°
2026-04-16 13:11 43.99276 5.04380 34176 ft 408 kts 341°
2026-04-16 13:12 44.01948 5.03137 33640 ft 404 kts 341°
2026-04-16 13:12 44.04606 5.01898 33144 ft 399 kts 341°
2026-04-16 13:12 44.07217 5.00679 32652 ft 395 kts 341°
2026-04-16 13:12 44.09808 4.99471 32169 ft 391 kts 341°
2026-04-16 13:13 44.12373 4.98270 31683 ft 387 kts 341°
2026-04-16 13:13 44.14918 4.97078 31213 ft 385 kts 341°
2026-04-16 13:13 44.17455 4.95891 30742 ft 384 kts 341°
2026-04-16 13:13 44.19994 4.94707 30268 ft 385 kts 340°
2026-04-16 13:14 44.22538 4.93520 29761 ft 386 kts 340°
2026-04-16 13:14 44.25049 4.92343 29314 ft 386 kts 340°
2026-04-16 13:14 44.27596 4.91149 28851 ft 386 kts 340°
2026-04-16 13:14 44.30153 4.89952 28405 ft 388 kts 340°
2026-04-16 13:15 44.32724 4.88747 27962 ft 391 kts 340°
2026-04-16 13:15 44.35299 4.87537 27520 ft 391 kts 340°
2026-04-16 13:15 44.37877 4.86322 27077 ft 389 kts 340°
2026-04-16 13:15 44.40452 4.85106 26648 ft 392 kts 340°
2026-04-16 13:16 44.43041 4.83882 26203 ft 395 kts 340°
2026-04-16 13:16 44.45637 4.82655 25756 ft 392 kts 340°
2026-04-16 13:16 44.48215 4.81436 25316 ft 388 kts 340°
2026-04-16 13:16 44.50763 4.80231 24857 ft 386 kts 340°
2026-04-16 13:17 44.53309 4.79033 24417 ft 387 kts 341°
2026-04-16 13:17 44.55947 4.78271 23916 ft 388 kts 353°
2026-04-16 13:17 44.58642 4.78303 23371 ft 387 kts
2026-04-16 13:17 44.61321 4.78593 22860 ft 385 kts
2026-04-16 13:18 44.63995 4.78876 22378 ft 383 kts
2026-04-16 13:18 44.66643 4.79149 21885 ft 381 kts
2026-04-16 13:18 44.69249 4.79412 21407 ft 379 kts
2026-04-16 13:18 44.71875 4.79674 20921 ft 377 kts
2026-04-16 13:19 44.74486 4.79933 20437 ft 375 kts
2026-04-16 13:19 44.77083 4.80194 19956 ft 373 kts
2026-04-16 13:19 44.79668 4.80457 19488 ft 371 kts
2026-04-16 13:19 44.82242 4.80723 19014 ft 369 kts
2026-04-16 13:20 44.84792 4.80986 18551 ft 368 kts
2026-04-16 13:20 44.87344 4.81246 18045 ft 365 kts
2026-04-16 13:20 44.89869 4.81502 17597 ft 362 kts
2026-04-16 13:20 44.92384 4.81759 17142 ft 362 kts
2026-04-16 13:21 44.94891 4.82020 16692 ft 359 kts
2026-04-16 13:21 44.97375 4.82280 16250 ft 357 kts
2026-04-16 13:21 44.99842 4.82538 15816 ft 355 kts
2026-04-16 13:21 45.02296 4.82793 15390 ft 352 kts
2026-04-16 13:22 45.04729 4.83043 14956 ft 350 kts
2026-04-16 13:22 45.07150 4.83289 14528 ft 348 kts
2026-04-16 13:22 45.09560 4.83533 14107 ft 345 kts
2026-04-16 13:22 45.11954 4.83777 13638 ft 343 kts
2026-04-16 13:23 45.14300 4.84019 13222 ft 342 kts
2026-04-16 13:23 45.16665 4.84275 12788 ft 340 kts
2026-04-16 13:23 45.18970 4.84992 12358 ft 339 kts 15°
2026-04-16 13:23 45.21229 4.85963 11922 ft 338 kts 16°
2026-04-16 13:24 45.23475 4.86930 11484 ft 336 kts 15°
2026-04-16 13:24 45.25709 4.87893 11040 ft 335 kts 16°
2026-04-16 13:24 45.27878 4.89054 10673 ft 331 kts 27°
2026-04-16 13:24 45.29726 4.90882 10554 ft 318 kts 41°
2026-04-16 13:25 45.31331 4.92971 10431 ft 306 kts 42°
2026-04-16 13:25 45.32874 4.94970 10216 ft 296 kts 42°
2026-04-16 13:25 45.34387 4.96927 9834 ft 292 kts 42°
2026-04-16 13:25 45.35881 4.98863 9439 ft 289 kts 41°